Location: Recife
(8.0585°S, 34.8848°W)
Time: 06:30:54
(UTC-03:00)

Vanguard 1 Rocket - Pass Details

Date: 17 April 2026
Orbit: 655 x 4212 km, 34.3° (Epoch: 13 May)

Event Time Altitude Azimuth Distance (km) Brightness Sun altitude
Rises 16:27:30 0° 234° (SW) 5,020 11.9 11.0°
Reaches altitude 10° 16:30:07 10° 234° (SW) 4,362 11.6 10.4°
Maximum altitude 16:43:22 89° 143° (SE) 3,008 10.2 7.2°
Drops below altitude 10° 17:07:47 10° 53° (NE) 7,331 11.6 1.2°
Sets 17:13:51 0° 53° (NE) 8,445 11.9 -0.2°
